Shelby, NC

9:21 PM EDT on April 30, 2017 (GMT -0400)
Shelby Municipal

Weather History for KEHO - January, 2014

Change the Weather History Date:

Saturday, January 25, 2014

  Actual Average (KHKY) Record (KHKY)
Temperature  
Mean Temperature 28 °F -  
Max Temperature 39 °F 50 °F 75 °F (1949)
Min Temperature 17 °F 31 °F 9 °F (1963)
Degree Days  
Heating Degree Days 37    
Moisture  
Dew Point 4 °F    
Average Humidity 35    
Maximum Humidity 52    
Minimum Humidity 24    
Precipitation  
Precipitation 0.00 in - - ()
Sea Level Pressure  
Sea Level Pressure 29.88 in    
Wind  
Wind Speed 11 mph (SSW)    
Max Wind Speed 22 mph    
Max Gust Speed 29 mph    
Visibility 10 miles    
Events      
Averages and records for this station are not official NWS values.
T = Trace of Precipitation, MM = Missing Value Source: NWS Daily Summary

Daily Weather History Graph

Daily Weather History Graph

Search for Another Location

Airport or City:

Trip Planner

Search our weather history database for the weather conditions in past years. The results will help you decide how hot, cold, wet, or windy it might be!

Date:

Astronomy

Jan. 25, 2014 Rise Set
Actual Time 7:30 AM EST 5:47 PM EST
Civil Twilight 7:03 AM EST 6:14 PM EST
Nautical Twilight 6:32 AM EST 6:45 PM EST
Astronomical Twilight 6:02 AM EST 7:15 PM EST
Moon 2:01 AM EST (1/25) 12:46 PM EST (1/25)
Length of Visible Light 11h 11m
Length of Day
10h 17m
Waning Crescent, 34% of the Moon is Illuminated
Jan 25
Waning Crescent
Jan 30
New
Feb 6
First Quarter
Feb 14
Full
Feb 22
Last Quarter

Hourly Weather History & Observations

Time (EST) Temp. Windchill Dew Point Humidity Pressure Visibility Wind Dir Wind Speed Gust Speed Precip Events Conditions
12:18 AM 19.4 °F 7.9 °F -7.6 °F 30% 30.21 in 10.0 mi South 10.4 mph - N/A   Clear
12:38 AM 19.4 °F 11.5 °F -5.8 °F 33% 30.21 in 10.0 mi SSW 5.8 mph - N/A   Clear
12:59 AM 19.4 °F 9.5 °F -5.8 °F 33% 30.19 in 10.0 mi South 8.1 mph - N/A   Clear
1:18 AM 19.4 °F 11.5 °F -5.8 °F 33% 30.16 in 10.0 mi South 5.8 mph - N/A   Clear
1:38 AM 17.6 °F 8.2 °F -5.8 °F 35% 30.16 in 10.0 mi SSW 6.9 mph - N/A   Clear
1:58 AM 17.6 °F 10.7 °F -5.8 °F 35% 30.15 in 10.0 mi South 4.6 mph - N/A   Clear
2:18 AM 17.6 °F 12.3 °F -5.8 °F 35% 30.13 in 10.0 mi South 3.5 mph - N/A   Clear
2:38 AM 17.6 °F 8.2 °F -4.0 °F 38% 30.12 in 10.0 mi South 6.9 mph - N/A   Clear
2:58 AM 17.6 °F 9.3 °F -4.0 °F 38% 30.12 in 10.0 mi South 5.8 mph - N/A   Clear
3:18 AM 17.6 °F 7.3 °F -2.2 °F 42% 30.09 in 10.0 mi South 8.1 mph - N/A   Clear
3:38 AM 17.6 °F 6.4 °F -2.2 °F 42% 30.07 in 10.0 mi South 9.2 mph - N/A   Clear
3:58 AM 17.6 °F 7.3 °F -2.2 °F 42% 30.07 in 10.0 mi South 8.1 mph - N/A   Clear
4:18 AM 17.6 °F 7.3 °F -2.2 °F 42% 30.05 in 10.0 mi South 8.1 mph - N/A   Clear
4:38 AM 19.4 °F 6.6 °F -2.2 °F 39% 30.04 in 10.0 mi South 12.7 mph 18.4 mph N/A   Clear
4:58 AM 19.4 °F 8.6 °F -0.4 °F 42% 30.03 in 10.0 mi South 9.2 mph - N/A   Clear
5:18 AM 19.4 °F 7.9 °F -0.4 °F 42% 30.03 in 10.0 mi South 10.4 mph 16.1 mph N/A   Clear
5:38 AM 19.4 °F 7.2 °F -0.4 °F 42% 30.01 in 10.0 mi South 11.5 mph - N/A   Clear
5:58 AM 19.4 °F 9.5 °F -0.4 °F 42% 29.99 in 10.0 mi South 8.1 mph - N/A   Clear
6:18 AM 19.4 °F 10.4 °F 1.4 °F 46% 29.98 in 10.0 mi South 6.9 mph - N/A   Clear
6:38 AM 19.4 °F 10.4 °F 1.4 °F 46% 29.97 in 10.0 mi South 6.9 mph - N/A   Clear
7:18 AM 23.0 °F 12.4 °F -0.4 °F 36% 29.95 in 10.0 mi SSW 10.4 mph 16.1 mph N/A   Clear
7:38 AM 24.8 °F 13.4 °F -0.4 °F 34% 29.94 in 10.0 mi South 12.7 mph 18.4 mph N/A   Scattered Clouds
7:58 AM 24.8 °F 14.0 °F -0.4 °F 34% 29.94 in 10.0 mi SSW 11.5 mph 17.3 mph N/A   Mostly Cloudy
8:18 AM 24.8 °F 13.4 °F -0.4 °F 34% 29.92 in 10.0 mi South 12.7 mph 19.6 mph N/A   Scattered Clouds
8:38 AM 26.6 °F 15.2 °F -0.4 °F 31% 29.90 in 10.0 mi SSW 13.8 mph 19.6 mph N/A   Clear
8:58 AM 26.6 °F 16.2 °F -0.4 °F 31% 29.90 in 10.0 mi SSW 11.5 mph 24.2 mph N/A   Clear
9:18 AM 26.6 °F 13.8 °F -0.4 °F 31% 29.87 in 10.0 mi SSW 17.3 mph 23.0 mph N/A   Scattered Clouds
9:38 AM 26.6 °F 13.8 °F -0.4 °F 31% 29.87 in 10.0 mi SSW 17.3 mph 24.2 mph N/A   Scattered Clouds
9:58 AM 26.6 °F 17.5 °F -0.4 °F 31% 29.86 in 10.0 mi SSW 9.2 mph 19.6 mph N/A   Clear
10:18 AM 28.4 °F 16.2 °F -0.4 °F 29% 29.85 in 10.0 mi SSW 17.3 mph 28.8 mph N/A   Mostly Cloudy
10:39 AM 28.4 °F 17.5 °F -0.4 °F 29% 29.83 in 10.0 mi SSW 13.8 mph 24.2 mph N/A   Mostly Cloudy
10:58 AM 30.2 °F 19.3 °F -0.4 °F 27% 29.83 in 10.0 mi SW 15.0 mph 25.3 mph N/A   Scattered Clouds
11:18 AM 30.2 °F 18.9 °F -0.4 °F 27% 29.82 in 10.0 mi SSW 16.1 mph 25.3 mph N/A   Scattered Clouds
11:38 AM 32.0 °F 23.6 °F -0.4 °F 25% 29.79 in 10.0 mi SSW 10.4 mph 19.6 mph N/A   Mostly Cloudy
11:58 AM 33.8 °F 24.8 °F 1.4 °F 25% 29.77 in 10.0 mi SW 12.7 mph 19.6 mph N/A   Scattered Clouds
12:19 PM 35.6 °F 27.1 °F 1.4 °F 24% 29.75 in 10.0 mi SSW 12.7 mph 20.7 mph N/A   Scattered Clouds
12:39 PM 35.6 °F 25.9 °F 1.4 °F 24% 29.74 in 10.0 mi SSW 16.1 mph 23.0 mph N/A   Mostly Cloudy
12:58 PM 37.4 °F 27.2 °F 3.2 °F 24% 29.72 in 10.0 mi SW 19.6 mph 26.5 mph N/A   Scattered Clouds
1:18 PM 37.4 °F 28.2 °F 3.2 °F 24% 29.71 in 10.0 mi SSW 16.1 mph 24.2 mph N/A   Mostly Cloudy
1:38 PM 37.4 °F 27.2 °F 3.2 °F 24% 29.72 in 10.0 mi SW 19.6 mph 25.3 mph N/A   Overcast
1:58 PM 37.4 °F 27.2 °F 3.2 °F 24% 29.71 in 10.0 mi SW 19.6 mph 25.3 mph N/A   Overcast
2:20 PM 37.4 °F 27.8 °F 5.0 °F 26% 29.71 in 10.0 mi SW 17.3 mph 23.0 mph N/A   Overcast
2:38 PM 37.4 °F 28.5 °F 6.8 °F 28% 29.70 in 10.0 mi SW 15.0 mph 24.2 mph N/A   Overcast
2:58 PM 39.2 °F 29.0 °F 6.8 °F 26% 29.71 in 10.0 mi SW 21.9 mph 26.5 mph N/A   Mostly Cloudy
3:18 PM 39.2 °F 30.2 °F 6.8 °F 26% 29.71 in 10.0 mi WSW 17.3 mph 26.5 mph N/A   Mostly Cloudy
3:38 PM 39.2 °F 29.3 °F 8.6 °F 28% 29.72 in 10.0 mi WSW 20.7 mph 25.3 mph N/A   Overcast
3:58 PM 39.2 °F 30.8 °F 8.6 °F 28% 29.71 in 10.0 mi SW 15.0 mph 24.2 mph N/A   Mostly Cloudy
4:19 PM 39.2 °F 29.8 °F 8.6 °F 28% 29.72 in 10.0 mi SW 18.4 mph 25.3 mph N/A   Overcast
4:38 PM 39.2 °F 30.2 °F 10.4 °F 31% 29.74 in 10.0 mi WSW 17.3 mph 21.9 mph N/A   Overcast
4:58 PM 39.2 °F 29.8 °F 10.4 °F 31% 29.75 in 10.0 mi WSW 18.4 mph - N/A   Overcast
5:18 PM 39.2 °F 31.2 °F 10.4 °F 31% 29.75 in 10.0 mi SW 13.8 mph 19.6 mph N/A   Mostly Cloudy
5:38 PM 37.4 °F 29.8 °F 10.4 °F 33% 29.75 in 10.0 mi SW 11.5 mph 16.1 mph N/A   Scattered Clouds
5:58 PM 37.4 °F 30.8 °F 10.4 °F 33% 29.76 in 10.0 mi SSW 9.2 mph - N/A   Clear
6:18 PM 37.4 °F 29.8 °F 12.2 °F 36% 29.77 in 10.0 mi SSW 11.5 mph - N/A   Clear
6:39 PM 35.6 °F 27.5 °F 12.2 °F 38% 29.78 in 10.0 mi SW 11.5 mph - N/A   Clear
6:58 PM 35.6 °F 28.0 °F 12.2 °F 38% 29.79 in 10.0 mi SW 10.4 mph - N/A   Clear
7:19 PM 35.6 °F 29.2 °F 12.2 °F 38% 29.80 in 10.0 mi SSW 8.1 mph - N/A   Clear
7:38 PM 35.6 °F 29.2 °F 12.2 °F 38% 29.79 in 10.0 mi SSW 8.1 mph - N/A   Clear
7:58 PM 33.8 °F 27.7 °F 12.2 °F 41% 29.79 in 10.0 mi South 6.9 mph - N/A   Clear
8:18 PM 33.8 °F 27.0 °F 15.8 °F 48% 29.81 in 10.0 mi SSW 8.1 mph - N/A   Clear
8:38 PM 33.8 °F 26.4 °F 17.6 °F 52% 29.81 in 10.0 mi SW 9.2 mph - N/A   Clear
8:58 PM 33.8 °F 25.8 °F 17.6 °F 52% 29.81 in 10.0 mi SW 10.4 mph - N/A   Clear
9:38 PM 33.8 °F 25.3 °F 15.8 °F 48% 29.80 in 10.0 mi SSW 11.5 mph - N/A   Scattered Clouds
10:00 PM 33.8 °F 24.3 °F 15.8 °F 48% 29.81 in 10.0 mi SW 13.8 mph 19.6 mph N/A   Clear
10:18 PM 33.8 °F 24.8 °F 15.8 °F 48% 29.82 in 10.0 mi SW 12.7 mph 17.3 mph N/A   Clear
10:39 PM 33.8 °F 25.3 °F 15.8 °F 48% 29.82 in 10.0 mi SSW 11.5 mph - N/A   Clear
10:58 PM 33.8 °F 24.3 °F 15.8 °F 48% 29.83 in 10.0 mi SSW 13.8 mph - N/A   Clear
11:18 PM 33.8 °F 23.9 °F 15.8 °F 48% 29.83 in 10.0 mi SW 15.0 mph - N/A   Clear
11:38 PM 33.8 °F 24.8 °F 15.8 °F 48% 29.84 in 10.0 mi WSW 12.7 mph - N/A   Clear